Vertical_Velocity
1 0 0 1 -0 2 1 1 -0 1 -0 -1 0 -1 1 2 1 0 -1 -1 1 1 1 1 1 0 0 1 1 2 1 0 -0 1 -0 0 -1 -2 -1 -0 1 -0 -2 -1
-1 -1 0 0 0 -1 0 1 1 1 2 1 -0 0 1 1 -0 0 1 1 2 1 0 0 1 2 2 1 1 -0 -1 0 1 1 -0 0 -1 -0 -0 -1 -1 2 -2 -5
-0 -1 -1 0 -1 -1 -1 -2 -1 -0 0 1 1 0 0 0 0 2 2 0 -0 0 -0 -0 1 1 0 1 1 1 -0 -1 -1 -1 -0 -0 -2 -1 -4 -2 -1 -1 -0 6
-2 -0 1 1 1 -0 -1 -1 -2 -1 -2 -0 1 1 1 1 0 0 1 0 1 1 0 -1 -1 -1 1 -0 -2 -2 -0 2 -1 -1 -2 2 1 -1 -0 2 -3 1 -2 7
-1 -1 -1 -1 -0 1 1 -0 0 1 0 -1 -2 -2 -2 -0 -1 0 -0 -0 1 0 1 -0 0 1 -0 -0 -0 -1 -1 -0 -1 5 -3 -2 1 -2 -1 -2 -2 5 -6 7
-1 -0 0 -1 -1 -1 -1 1 0 0 3 3 1 -1 -0 -1 -1 -0 1 1 -0 -0 -1 -1 -2 -1 -1 -2 -0 -1 -2 -2 -2 8 -0 -2 -1 -1 0 -1 0 -0 -2 -3
-1 1 -0 -1 -0 -0 -0 -2 -2 -2 -1 -1 1 1 1 1 -2 -2 -2 -1 -0 0 0 1 1 -1 -0 -1 -0 -1 2 -1 -3 5 -1 -3 1 2 -1 -2 2 0 2 1
0 -2 -1 0 -1 -2 -1 -2 -1 -0 0 -2 -1 -1 0 1 4 1 -1 -2 -1 -2 -3 -1 1 5 1 -0 0 -0 -1 -3 -6 -7 0 0 1 -1 -1 -3 1 0 -0 2
-3 -0 -0 -1 -2 1 2 1 0 -0 -2 2 -2 -2 -4 -2 0 3 1 2 -0 -0 -2 -3 -3 -1 -1 -2 2 0 -1 1 -1 -3 -4 -7 1 -4 2 -4 -4 0 1 1
1 -2 0 -2 -2 -0 -0 -1 -1 1 -1 1 -0 -0 -3 -1 -1 -1 -0 1 -1 -2 2 0 -2 -4 1 -0 -2 -2 -1 -3 -5 -3 -8 3 1 6 -6 -8 -6 -3 1 -1
1 1 -0 -0 -2 -5 -1 1 -1 -1 0 -1 -0 1 -0 -0 -2 -3 -1 -3 2 -4 -2 -4 -4 -0 1 1 1 -2 1 -5 4 1 -1 0 5 0 -2 3 0 -0 -0 1
-3 1 4 1 0 1 -1 -4 -4 -2 -2 3 -2 2 3 3 -1 -3 1 -3 -4 -1 -4 -2 -4 -5 -7 1 0 -1 -2 -1 -9 -0 1 -2 -3 -3 -5 -3 3 7 6 -1
2 -3 -3 2 2 0 3 2 -5 -5 -1 2 1 -4 1 2 2 -3 -3 4 -6 1 -3 -2 -1 -2 1 1 2 -0 1 -5 -2 -10 21 -3 5 1 2 -1 0 -4 -5 0
-2 -1 -2 -4 -1 2 1 1 -0 -4 -4 -8 2 2 4 0 1 2 -0 -1 1 -4 -3 -5 -3 8 -5 10 -10 4 8 -4 -3 -6 25 -14 12 -6 -6 -1 -3 0 1 -3
-0 -2 0 -2 -0 1 0 2 -2 -2 -2 -14 4 5 -5 2 6 5 3 2 -3 0 -7 -4 -3 4 -11 -0 -2 35 -10 5 -9 -9 3 -13 11 2 -2 -4 -0 -3 -0 4
-1 -1 -3 -7 -1 -0 2 5 6 -3 -10 -19 -9 7 13 2 4 5 1 1 -6 -10 -2 -4 -7 9 -14 -26 -6 47 -7 -12 -5 8 -3 -12 9 -2 -3 10 1 1 0 0
-1 0 -1 -3 -3 -2 5 -0 -14 6 -2 -11 -21 -15 12 20 16 14 8 3 -7 1 -6 -10 -7 8 -11 -17 -10 38 13 -12 -15 -2 2 13 1 -4 -0 1 8 2 0 1
-1 -0 -3 -2 -1 -1 9 -4 -6 -12 0 -7 -23 -4 4 8 15 4 6 5 -4 -7 -9 -9 4 -5 4 -44 32 21 2 -8 -1 -5 -6 -5 9 5 3 -1 -2 -1 -3 -3
-0 1 -2 -3 -1 -2 7 -2 -2 0 -5 -19 -12 4 4 3 7 4 -1 -4 -3 -10 -3 13 -7 -3 -16 11 8 1 3 -2 -2 6 -1 -0 -1 5 6 5 5 -0 -0 -5
4 4 -1 -3 7 -4 -4 -6 0 -13 0 -20 -3 2 8 8 9 -8 3 -7 -4 -17 -4 3 -8 -15 13 16 -6 -6 -3 -9 -3 -4 -1 -2 -1 1 4 6 2 1 1 2
-1 -2 2 2 -1 -1 -5 -8 -5 1 -7 -8 9 16 8 0 -1 1 -1 -7 1 -26 -7 6 -20 -10 23 13 3 1 4 -2 -4 2 6 0 -1 -0 -3 2 -1 -1 0 1
-1 1 -1 3 -6 -5 -3 -13 -2 6 2 -5 12 -5 -0 -0 4 -1 -9 2 -8 -17 2 -4 -28 18 -1 -7 0 10 11 3 1 1 2 1 1 2 -1 -1 2 0 -3 4
-1 -0 -5 0 -4 -17 -16 -7 8 22 9 -2 1 3 2 -0 3 -5 1 -5 -8 1 -21 -16 8 -16 -1 -2 -0 2 1 4 3 4 -2 -2 1 1 -1 2 -0 -5 -5 5
0 1 -8 -1 -31 -6 6 7 17 10 7 1 1 1 0 1 -0 2 -7 -3 -3 -19 -15 -0 -24 -5 -3 -8 -2 -4 -2 -3 -2 3 5 -2 -1 -0 -1 -0 -0 1 3 -1
1 -3 -18 -32 11 3 9 7 14 6 2 3 2 1 -4 2 -4 -3 -4 3 -8 -4 6 3 7 -0 -0 -1 -7 -10 -5 -1 3 -0 -1 4 0 -2 -1 3 8 4 -7 -3
-3 -19 -27 -1 7 10 5 18 3 8 4 5 -3 2 -4 -1 -1 -11 -8 5 -13 16 1 -2 8 -0 -3 -4 -11 -6 1 2 -0 5 1 1 3 0 0 14 5 2 0 -4
-18 -18 5 -2 -0 12 4 8 4 9 3 -1 12 1 -3 2 -8 -22 2 4 4 5 3 -2 -4 -3 -7 -13 -4 10 6 -3 -3 -4 -1 -1 2 1 -3 -3 9 1 -8 4
Height
5814 5813 5811 5809 5807 5804 5801 5798 5797 5794 5792 5792 5789 5788 5787 5786 5785 5785 5785 5784 5783 5782 5782 5781 5780 5780 5779 5778 5777 5776 5775 5774 5772 5771 5769 5767 5765 5763 5761 5758 5757 5752 5747 5745
5815 5814 5812 5811 5809 5808 5805 5803 5800 5798 5796 5794 5793 5791 5789 5788 5787 5786 5785 5784 5784 5783 5782 5781 5779 5778 5777 5776 5775 5774 5773 5771 5769 5768 5767 5764 5761 5759 5756 5754 5751 5749 5744 5740
5815 5814 5813 5811 5810 5808 5807 5805 5803 5801 5799 5797 5795 5793 5791 5790 5788 5786 5785 5783 5782 5781 5780 5779 5778 5777 5776 5774 5773 5771 5770 5768 5767 5766 5763 5761 5758 5755 5753 5750 5747 5745 5742 5739
5813 5812 5811 5810 5809 5807 5807 5805 5803 5802 5800 5798 5796 5794 5792 5789 5787 5786 5784 5782 5781 5779 5778 5776 5774 5773 5772 5771 5769 5767 5766 5765 5762 5760 5757 5756 5754 5750 5747 5745 5740 5738 5736 5735
5809 5808 5807 5807 5806 5805 5804 5803 5802 5800 5798 5796 5795 5794 5792 5789 5787 5785 5782 5780 5778 5776 5775 5773 5770 5768 5766 5766 5763 5761 5759 5758 5755 5755 5749 5747 5747 5743 5739 5735 5733 5732 5728 5727
5804 5803 5803 5802 5801 5801 5800 5799 5798 5797 5795 5793 5792 5790 5788 5787 5785 5783 5780 5778 5775 5773 5770 5768 5766 5763 5761 5759 5757 5754 5752 5749 5747 5749 5743 5740 5739 5735 5731 5727 5725 5723 5721 5718
5798 5797 5796 5796 5795 5795 5794 5793 5792 5792 5790 5788 5787 5785 5784 5782 5780 5778 5776 5774 5771 5769 5766 5762 5759 5756 5754 5752 5749 5746 5744 5741 5737 5737 5734 5731 5730 5727 5723 5719 5716 5713 5711 5709
5789 5789 5789 5788 5788 5787 5786 5786 5785 5784 5783 5782 5781 5779 5778 5776 5775 5772 5770 5768 5765 5762 5759 5756 5753 5750 5746 5743 5741 5739 5735 5731 5728 5726 5725 5724 5723 5718 5714 5710 5709 5706 5703 5699
5780 5780 5780 5780 5779 5779 5778 5777 5776 5776 5776 5776 5773 5772 5770 5768 5767 5765 5763 5761 5758 5755 5751 5748 5744 5742 5738 5736 5733 5730 5726 5722 5719 5716 5713 5713 5716 5709 5705 5701 5700 5698 5694 5690
5768 5769 5770 5770 5769 5769 5769 5768 5768 5767 5766 5766 5765 5763 5763 5762 5759 5757 5756 5753 5749 5746 5743 5738 5736 5734 5731 5727 5723 5721 5717 5712 5710 5706 5700 5705 5700 5699 5694 5695 5694 5688 5685 5681
5755 5756 5757 5758 5758 5758 5758 5758 5757 5756 5756 5755 5754 5753 5752 5752 5751 5748 5748 5745 5743 5738 5735 5731 5727 5724 5721 5718 5715 5711 5707 5701 5699 5696 5693 5692 5689 5683 5685 5684 5680 5677 5676 5671
5742 5743 5744 5745 5745 5746 5745 5745 5745 5744 5744 5746 5742 5742 5739 5740 5740 5738 5738 5734 5729 5727 5722 5718 5712 5712 5712 5709 5704 5701 5699 5697 5689 5692 5688 5677 5671 5672 5671 5670 5669 5667 5664 5660
5728 5728 5730 5731 5731 5731 5732 5732 5730 5729 5728 5732 5732 5727 5728 5726 5726 5724 5724 5724 5718 5718 5711 5705 5701 5698 5698 5695 5693 5690 5688 5685 5682 5674 5686 5668 5661 5663 5661 5659 5655 5652 5650 5647
5713 5713 5713 5714 5716 5717 5716 5717 5716 5713 5713 5712 5717 5714 5714 5714 5712 5711 5709 5707 5705 5703 5698 5692 5687 5687 5684 5684 5679 5673 5684 5672 5672 5662 5671 5655 5655 5655 5650 5647 5642 5639 5637 5634
5696 5697 5698 5699 5699 5700 5701 5700 5699 5699 5698 5696 5697 5698 5696 5695 5697 5695 5694 5692 5690 5687 5682 5678 5675 5671 5669 5665 5663 5665 5670 5663 5655 5653 5645 5642 5642 5643 5636 5633 5631 5627 5624 5620
5679 5680 5681 5681 5681 5682 5682 5683 5683 5680 5678 5678 5678 5683 5685 5681 5676 5677 5675 5674 5672 5668 5664 5663 5659 5659 5652 5647 5647 5652 5655 5651 5639 5634 5634 5628 5626 5623 5620 5619 5615 5612 5610 5606
5661 5662 5663 5663 5665 5665 5666 5664 5661 5660 5659 5659 5659 5661 5665 5666 5665 5663 5660 5655 5654 5647 5644 5644 5642 5639 5633 5633 5633 5641 5636 5630 5625 5618 5614 5614 5611 5610 5605 5602 5599 5596 5591 5588
5639 5641 5644 5645 5646 5647 5649 5643 5643 5642 5640 5638 5642 5646 5647 5645 5639 5638 5638 5633 5630 5630 5627 5629 5627 5623 5618 5615 5625 5621 5611 5610 5609 5606 5600 5597 5592 5587 5585 5585 5583 5579 5575 5571
5619 5620 5622 5625 5627 5629 5630 5627 5626 5625 5625 5621 5626 5630 5627 5625 5623 5617 5615 5610 5608 5606 5609 5610 5608 5610 5605 5609 5606 5598 5595 5591 5590 5589 5585 5582 5577 5570 5565 5562 5559 5557 5554 5550
5598 5600 5602 5604 5608 5607 5610 5609 5609 5608 5606 5604 5613 5612 5605 5605 5599 5594 5596 5589 5587 5584 5591 5583 5587 5592 5595 5589 5583 5584 5580 5577 5574 5570 5566 5561 5556 5551 5548 5543 5540 5536 5532 5529
5575 5579 5581 5583 5584 5586 5587 5589 5593 5591 5587 5587 5596 5592 5586 5580 5578 5576 5569 5565 5563 5563 5571 5562 5566 5576 5579 5566 5567 5566 5560 5555 5551 5549 5545 5540 5536 5532 5528 5525 5520 5515 5511 5508
5552 5556 5558 5561 5561 5563 5567 5573 5574 5573 5566 5568 5570 5566 5562 5559 5555 5551 5549 5546 5540 5542 5548 5540 5545 5552 5548 5548 5547 5541 5536 5531 5529 5526 5522 5519 5516 5513 5509 5506 5501 5496 5492 5488
5529 5532 5536 5539 5540 5544 5552 5555 5554 5550 5544 5542 5541 5540 5539 5536 5534 5528 5527 5522 5521 5522 5521 5523 5528 5526 5526 5523 5521 5517 5512 5508 5506 5503 5498 5496 5493 5489 5485 5483 5479 5473 5471 5466
5507 5508 5511 5517 5524 5529 5534 5534 5530 5525 5522 5519 5518 5516 5516 5515 5513 5511 5507 5505 5502 5499 5503 5506 5504 5501 5499 5496 5493 5490 5490 5489 5488 5483 5478 5475 5471 5469 5464 5461 5458 5455 5452 5447
5483 5482 5486 5506 5514 5511 5514 5511 5508 5504 5501 5499 5496 5495 5494 5494 5492 5492 5490 5490 5489 5490 5491 5489 5483 5481 5479 5477 5474 5472 5471 5469 5467 5464 5461 5457 5453 5449 5447 5442 5438 5432 5428 5425
5461 5463 5474 5487 5489 5489 5490 5489 5488 5485 5481 5477 5474 5472 5470 5470 5469 5468 5469 5469 5470 5472 5468 5463 5461 5459 5458 5455 5454 5453 5451 5449 5448 5447 5442 5435 5432 5429 5427 5423 5416 5411 5407 5402
5439 5453 5459 5464 5463 5468 5469 5468 5467 5463 5458 5458 5456 5450 5448 5447 5443 5447 5451 5448 5449 5448 5446 5443 5439 5436 5434 5435 5436 5433 5431 5429 5425 5419 5416 5414 5411 5407 5404 5399 5394 5386 5382 5376